| Date | Temp | Humidity | Rainfall | Dew Point | Wind Direction | Wind Speed | Wind Pressure | Condition | Visibility |
|---|---|---|---|---|---|---|---|---|---|
| 2025-05-18 10:03:32 | 29 | 75 | 24 | 140 | 9.5 | 1012 | Partly Cloudy (Day) | 20 km | |
| 2025-05-18 09:01:33 | 28 | 81 | 0.00 | 24 | 140 | 3.8 | 1012 | Cloudy | 20 KM |
| 2025-05-18 08:00:49 | 26 | 90 | 0.00 | 24 | 200 | 3.8 | 1012 | Partly Cloudy (Day) | 15 km |
| 2025-05-18 07:00:17 | 25 | 93 | 0.0 | 24 | 160 | 3.8 | 1011 | Partly Cloudy (Day) | 15 km |
| 2025-05-18 06:00:22 | 24 | 95 | 0.00 | 24 | 140 | 1.9 | 1011 | Partly Cloudy (Day) | 10 km |
| 2025-05-18 05:01:02 | 25 | 95 | 0.0 | 24 | 270 | 3.8 | 1010 | Partly Cloudy (Night) | 10 km |
| 2025-05-18 03:58:38 | 25 | 95 | 00 | 24 | 250 | 5.7 | 1010 | Partly Cloudy (Night) | 10 km |
| 2025-05-18 02:58:49 | 25 | 94 | 24 | 190 | 3.8 | 1010 | Showers | 10KM | |
| 2025-05-18 02:03:47 | 25 | 95 | 24 | 220 | 9.5 | 1010 | Showers | 10KM | |
| 2025-05-18 00:59:19 | 25 | 94 | 24 | 200 | 7.6 | 1011 | Showers | 10KM | |
| 2025-05-18 00:01:28 | 25 | 93 | 24 | 230 | 3.8 | 1011 | Partly Cloudy (Night) | 10KM | |
| 2025-05-17 23:00:27 | 25 | 96 | 24 | 130 | 3.8 | 1011 | Partly Cloudy (Night) | 10KM | |
| 2025-05-17 22:03:27 | 25 | 95 | 24 | 200 | 5.7 | 1011 | Lightning | 10KM | |
| 2025-05-17 20:58:57 | 25 | 96 | 24 | 200 | 3.8 | 1010 | Lightning | 10 KM | |
| 2025-05-17 20:00:53 | 25 | 96 | 24 | 160 | 5.7 | 1009 | Lightning | 10 KM | |
| 2025-05-17 19:02:48 | 25 | 97 | 24 | 140 | 5.7 | 1009 | Rain | 9 KM | |
| 2025-05-17 18:02:54 | 25 | 99 | 24 | 190 | 9.5 | 1008 | Thundershowers | 6 KM | |
| 2025-05-17 17:03:36 | 24 | 98 | 17.1 | 0.00 | 190 | 1008 | Thundershowers | 4 KM | |
| 2025-05-17 15:01:26 | 30 | 73 | 0.00 | 25 | 300 | 17.1 | 1007 | Thunderstorm | 10 |
| 2025-05-17 14:02:32 | 32 | 69 | 0.00 | 25 | 320 | 20.9 | 1008 | Distant showers | 15 KM |
| 2025-05-17 12:59:47 | 31 | 74 | 26 | 320 | 17.1 | 1009 | Partly Cloudy (Day) | 20 KM | |
| 2025-05-17 12:05:07 | 32 | 81 | 26 | 320 | 11.4 | 1010 | Partly Cloudy (Day) | 20 KM | |
| 2025-05-17 10:59:27 | 32 | 73 | 25 | 310 | 7.6 | 1010 | Partly Cloudy (Day) | 20 km | |
| 2025-05-17 09:59:23 | 31 | 67 | 0.00 | 25 | 220 | 5.7 | 1010 | Partly Cloudy (Day) | 20 km |
| 2025-05-17 09:09:17 | 30 | 73 | 0.0 | 25 | 220 | 3.8 | 1010 | Partly Cloudy (Day) | 20 km |